TTPPSVMI

Guest
Details From TTPP - Trinidade Piarco
To SVMI - Caracas Simon Bolivar Intl
Flight Number -
Tags Generated
Created
Modified
Stats Distance 333 nm / 617 km
Max Altitude 0 ft / 0 m
Waypoints 3
Social Downloads 0
Likes 0
Share VATSIM

Download

Looking for another format? Having issues loading an existing format? Contact us
Advertisement - Login to hide

Notes

Generated

Route

TTPP R1536 SVMI

ID Type Via Altitude Latitude Longitude Leg Dist Tot Dist Heading (true) Name
O TTPP APT - 0 ft / 0 m 10.59533˚ -61.35186˚ - 0 nm - -
R1536 FIX - 0 ft / 0 m 10.59869˚ -66.99768˚ 333 nm 333 nm 271° / 270° -
O SVMI APT - 0 ft / 0 m 10.59869˚ -66.99768˚ 0 nm 333 nm 0° / 180° -

Altitude Profile

Advertisement - Login to hide

Weather


0- 5 10 15 20 25 30 35+ Temperature / ° C

Clouds and Precipitation
Forecast for 2018-05-22 12:00 UTC. Updated 3 hours ago

Ground ~20,000 ft ~40,000 ft Winds

TTPP

Details ICAO TTPP (POS)
Name Trinidad/Piarco Intl
Region Trinidad and Tobago
Timezone America/Port_of_Spain (UTC-4.0)
Stats Elevation 57 ft / 17 m (AMSL)
Location 10.595370° -61.337239°
Runways 1
Magnetic Variation 15.024° W

METAR

TTPP 221400Z 11012KT 9999 VCSH FEW018 29/24 Q1015 NOSIG RMK VCSH NE

Decode

TAF

Not found

Departure Runways

ID Width Length Bearing (true) Bearing (mag) Surface Threshold Offset Overrun Length
10 151 ft / 46 m 10,486 ft / 3,196 m 89.83° 104.85° Asphalt 0 ft / 0 m 79 ft / 24 m
28 151 ft / 46 m 10,486 ft / 3,196 m 269.84° 284.86° Asphalt 0 ft / 0 m 184 ft / 56 m

SVMI

Details ICAO SVMI (CCS)
Name Caracas Simon Bolivar Intl
Region Venezuela
Timezone America/Caracas (UTC-4.0)
Stats Elevation 235 ft / 72 m (AMSL)
Location 10.603119° -66.990585°
Runways 2
Magnetic Variation 12.328° W

METAR

SVMI 221400Z 09003KT 9999 SCT020 27/23 Q1011

Decode

TAF

Not found

Destination Runways

ID Width Length Bearing (true) Bearing (mag) Surface Threshold Offset Overrun Length
09 145 ft / 44 m 9,825 ft / 2,995 m 75.92° 88.25° Asphalt 0 ft / 0 m 0 ft / 0 m
10 148 ft / 45 m 11,472 ft / 3,497 m 88.14° 100.47° Asphalt 0 ft / 0 m 200 ft / 61 m
27 145 ft / 44 m 9,825 ft / 2,995 m 255.92° 268.25° Asphalt 0 ft / 0 m 0 ft / 0 m
28 148 ft / 45 m 11,472 ft / 3,497 m 268.15° 280.48° Asphalt 0 ft / 0 m 200 ft / 61 m

Approach Navaids

Runway Type Ident Frequency Range Bearing (true) Bearing (mag) Slope Elevation
10 Localiser IMIQ 110.10 MHz 18 nm / 33 km 87.90° 100.23° - 235 ft / 72 m (AMSL)
10 Glidescope IMIQ 110.10 MHz 10 nm / 19 km 88.14° 100.47° 3.00° 235 ft / 72 m (AMSL)
10 DME IMIQ 110.10 MHz 18 nm / 33 km - - - 235 ft / 72 m (AMSL)

Popular Alternatives